Location: Cormont
(50.5693°N, 1.7416°E)
Time: 03:35:10
(UTC+00:00)

NOSS 3-2 (C) - Pass Details

Date: 21 October 2019
Orbit: 818 x 1394 km, 63.4° (Epoch: 11 November)

Event Time Altitude Azimuth Distance (km) Brightness Sun altitude
Rises 17:58:56 0° 178° (S) 3,394 6.4 -11.7°
Reaches altitude 10° 18:01:42 10° 165° (SSE) 2,513 5.5 -12.1°
Maximum altitude 18:06:18 25° 112° (ESE) 1,782 4.4 -12.8°
Enters shadow 18:09:34 17° 71° (ENE) 2,276 4.8 -13.4°
